FW6744 Weather Reports


time (UTC)temp
F
wind
direction
speed
knots
gust
knots
rain 1hr
in
rain 24hr
in
rain mn
in
humidity
%
barometer
mb
20260504010425 52 4 0.0 0.0 0.00 0.00 0.00 53 1011.7
20260504005919 52 4 0.0 0.0 0.00 0.00 0.00 52 1011.7
20260504005413 53 3 0.0 0.0 0.00 0.00 0.00 51 1011.8
20260504005134 53 4 0.0 0.0 0.00 0.00 0.00 51 1011.8
20260504004401 53 4 0.0 0.0 0.00 0.00 0.00 50 1011.7
20260504003855 54 4 0.0 0.0 0.00 0.00 0.00 49 1011.7
20260504003349 54 4 0.0 0.0 0.00 0.00 0.00 48 1011.6
20260504002843 55 4 0.0 0.0 0.00 0.00 0.00 47 1011.6
20260504002337 56 4 0.0 0.0 0.00 0.00 0.00 46 1011.5
20260504002057 56 3 0.0 0.0 0.00 0.00 0.00 45 1011.6
20260504001326 57 4 0.0 0.0 0.00 0.00 0.00 43 1011.5
20260504000818 57 4 0.0 0.0 0.00 0.00 0.00 43 1011.4
20260504000313 58 4 0.0 0.0 0.00 0.00 0.00 42 1011.4
20260504000025 59 4 0.0 0.0 0.00 0.00 0.00 41 1011.3
20260503235300 60 4 0.0 0.0 0.00 0.00 0.00 38 1011.3
20260503234755 60 4 0.0 0.0 0.00 0.00 0.00 39 1011.2
20260503234249 60 4 0.0 0.9 0.00 0.00 0.00 38 1011.2
20260503233742 61 4 0.0 0.9 0.00 0.00 0.00 36 1011.2
20260503233236 61 345 0.0 0.9 0.00 0.00 0.00 36 1011.1
20260503232730 62 345 0.0 0.9 0.00 0.00 0.00 36 1011.2
20260503232226 62 124 0.0 0.9 0.00 0.00 0.00 35 1011.1
20260503231719 62 205 0.0 2.6 0.00 0.00 0.00 34 1011.1
20260503231704 62 153 0.0 2.6 0.00 0.00 0.00 33 1011.0
20260503230707 63 217 0.0 1.7 0.00 0.00 0.00 34 1011.0
20260503230201 63 216 0.0 1.7 0.00 0.00 0.00 32 1011.1
20260503225655 63 111 0.0 3.5 0.00 0.00 0.00 32 1011.1
20260503225149 63 193 0.9 3.5 0.00 0.00 0.00 32 1011.1
20260503224643 63 350 0.0 3.5 0.00 0.00 0.00 32 1011.2
20260503224403 64 211 0.9 5.2 0.00 0.00 0.00 31 1011.1
20260503223858 64 98 0.9 5.2 0.00 0.00 0.00 31 1011.2
20260503223125 64 83 0.0 4.3 0.00 0.00 0.00 30 1011.2
20260503222619 64 227 0.0 2.6 0.00 0.00 0.00 30 1011.1
20260503222113 65 205 0.9 2.6 0.00 0.00 0.00 30 1011.2
20260503221606 65 203 0.9 4.3 0.00 0.00 0.00 30 1011.3
20260503221101 65 202 0.9 4.3 0.00 0.00 0.00 30 1011.3
20260503220554 66 200 0.9 3.5 0.00 0.00 0.00 28 1011.3
20260503220049 66 8 0.0 0.9 0.00 0.00 0.00 28 1011.4
20260503220029 66 164 0.0 3.5 0.00 0.00 0.00 30 1011.4
20260503215304 66 169 0.9 5.2 0.00 0.00 0.00 28 1011.4
20260503214731 68 231 0.9 5.2 0.00 0.00 0.00 27 1011.5
20260503214618 67 207 0.9 5.2 0.00 0.00 0.00 27 1011.4
20260503213519 69 118 0.9 5.2 0.00 0.00 0.00 27 1011.4
20260503213013 69 219 0.0 1.7 0.00 0.00 0.00 27 1011.3
20260503212507 68 204 0.9 1.7 0.00 0.00 0.00 27 1011.3
20260503212002 68 230 0.9 6.1 0.00 0.00 0.00 26 1011.3
20260503211455 68 18 0.9 6.1 0.00 0.00 0.00 28 1011.3
20260503210949 68 156 0.9 6.1 0.00 0.00 0.00 27 1011.3
20260503210442 68 160 0.0 2.6 0.00 0.00 0.00 27 1011.2
20260503205937 67 208 0.9 4.3 0.00 0.00 0.00 28 1011.3
20260503205430 67 279 0.9 4.3 0.00 0.00 0.00 28 1011.3
20260503204925 67 30 0.9 4.3 0.00 0.00 0.00 28 1011.4
20260503204643 67 191 0.9 4.3 0.00 0.00 0.00 29 1011.3
20260503203913 67 231 0.9 5.2 0.00 0.00 0.00 29 1011.2
20260503203406 67 105 0.9 5.2 0.00 0.00 0.00 28 1011.2
20260503203118 67 151 0.9 7.0 0.00 0.00 0.00 29 1011.4
20260503202355 67 80 0.9 7.0 0.00 0.00 0.00 29 1011.4
20260503201849 67 69 0.9 7.8 0.00 0.00 0.00 28 1011.5
20260503201342 66 34 0.9 7.8 0.00 0.00 0.00 30 1011.5
20260503200837 66 73 0.9 4.3 0.00 0.00 0.00 30 1011.4
20260503200331 67 206 0.9 4.3 0.00 0.00 0.00 28 1011.7
20260503195824 67 25 1.7 5.2 0.00 0.00 0.00 28 1011.8
20260503195319 67 24 1.7 5.2 0.00 0.00 0.00 28 1011.8
20260503194813 67 157 0.9 5.2 0.00 0.00 0.00 29 1011.8
20260503194307 67 48 0.9 4.3 0.00 0.00 0.00 28 1011.8
20260503193801 67 30 0.9 4.3 0.00 0.00 0.00 29 1012.1
20260503193738 67 201 0.9 3.5 0.00 0.00 0.00 29 1012.1
20260503192750 67 155 0.9 3.5 0.00 0.00 0.00 29 1012.1
20260503192243 68 113 0.9 2.6 0.00 0.00 0.00 28 1012.2
20260503191736 67 201 0.9 4.3 0.00 0.00 0.00 30 1012.2
20260503191233 67 5 0.9 4.3 0.00 0.00 0.00 29 1012.3
20260503190734 66 303 0.9 5.2 0.00 0.00 0.00 32 1012.4
20260503190233 65 187 1.7 5.2 0.00 0.00 0.00 29 1012.5
20260503185730 66 86 0.9 3.5 0.00 0.00 0.00 31 1012.6
20260503185230 66 229 0.9 4.3 0.00 0.00 0.00 32 1012.7
20260503184730 64 163 1.7 4.3 0.00 0.00 0.00 33 1012.7
20260503184230 64 32 1.7 4.3 0.00 0.00 0.00 31 1012.6
20260503183731 65 27 0.9 7.0 0.00 0.00 0.00 30 1012.7
20260503183231 65 196 0.9 7.0 0.00 0.00 0.00 31 1012.8
20260503182734 64 179 0.9 5.2 0.00 0.00 0.00 31 1012.8
20260503182228 64 63 1.7 5.2 0.00 0.00 0.00 30 1013.0
20260503181730 64 355 1.7 5.2 0.00 0.00 0.00 31 1013.0
20260503181229 64 158 0.9 5.2 0.00 0.00 0.00 33 1013.0
20260503180730 64 207 1.7 5.2 0.00 0.00 0.00 31 1013.1
20260503180230 64 28 1.7 5.2 0.00 0.00 0.00 31 1013.1
20260503175728 64 203 0.9 5.2 0.00 0.00 0.00 31 1013.2
20260503175228 64 108 0.9 4.3 0.00 0.00 0.00 32 1013.1
20260503174722 63 171 0.9 4.3 0.00 0.00 0.00 31 1013.1
20260503174220 64 232 0.9 6.1 0.00 0.00 0.00 34 1013.2
20260503173721 63 32 1.7 6.1 0.00 0.00 0.00 33 1013.0
20260503173450 63 167 1.7 4.3 0.00 0.00 0.00 33 1013.2
20260503172719 63 38 0.9 3.5 0.00 0.00 0.00 34 1013.3
20260503172218 63 52 0.9 4.3 0.00 0.00 0.00 33 1013.3
20260503171720 63 39 0.9 5.2 0.00 0.00 0.00 34 1013.5
20260503171218 62 30 1.7 6.1 0.00 0.00 0.00 34 1013.4
20260503170720 61 205 0.9 6.1 0.00 0.00 0.00 36 1013.5
20260503170220 62 206 0.9 6.1 0.00 0.00 0.00 33 1013.6
20260503150704 54 165 0.9 5.2 0.00 0.00 0.00 42 1014.4
20260503150205 53 87 0.9 5.2 0.00 0.00 0.00 41 1014.3
20260503140201 51 101 0.9 5.2 0.00 0.00 0.00 44 1014.3
20260503131323 48 30 1.7 5.2 0.00 0.00 0.00 57 1014.2
20260503130819 48 333 0.9 5.2 0.00 0.00 0.00 60 1014.2
20260503130311 48 90 0.9 6.1 0.00 0.00 0.00 65 1014.2
20260503110331 40 24 0.0 0.0 0.00 0.00 0.00 79 1013.2
20260503100219 42 24 0.0 0.0 0.00 0.00 0.00 72 1012.0
20260503090335 47 24 0.0 0.9 0.00 0.00 0.00 63 1011.3
20260503081525 48 39 0.0 0.9 0.00 0.00 0.00 62 1010.9
20260503081247 48 39 0.0 0.9 0.00 0.00 0.00 62 1010.9
20260503080522 48 38 0.0 0.9 0.00 0.00 0.00 61 1010.8
20260503072517 49 37 0.9 4.3 0.00 0.00 0.00 61 1010.4
20260503072019 49 30 0.0 2.6 0.00 0.00 0.00 62 1010.3
20260503071517 49 37 0.0 0.9 0.00 0.00 0.00 63 1010.2
20260503071018 50 37 0.0 0.9 0.00 0.00 0.00 62 1010.2
20260503070518 50 37 0.0 0.9 0.00 0.00 0.00 61 1010.2
20260503055018 51 42 0.0 0.9 0.00 0.00 0.00 66 1009.6
20260503054518 51 197 0.0 0.0 0.00 0.00 0.00 67 1009.6
20260503054017 51 197 0.0 0.0 0.00 0.00 0.00 67 1009.5
20260503053733 51 197 0.0 0.0 0.00 0.00 0.00 67 1009.6
20260503053016 51 197 0.0 0.0 0.00 0.00 0.00 68 1009.6
20260503052515 51 197 0.0 0.0 0.00 0.00 0.00 67 1009.6
20260503052013 51 197 0.0 0.0 0.00 0.00 0.00 68 1009.6
20260503051512 51 197 0.0 0.0 0.00 0.00 0.00 67 1009.6
20260503051232 51 197 0.0 0.0 0.00 0.00 0.00 69 1009.5
20260503050510 51 197 0.0 0.0 0.00 0.00 0.00 68 1009.5
20260503050011 51 197 0.0 0.0 0.00 0.00 0.00 68 1009.4
20260503045509 51 197 0.0 0.0 0.00 0.00 0.00 68 1009.5
20260503045010 51 197 0.0 0.0 0.00 0.00 0.00 68 1009.5
20260503044504 51 197 0.0 0.0 0.00 0.00 0.00 68 1009.4
20260503043958 51 197 0.0 0.9 0.00 0.00 0.00 68 1009.4
20260503043453 51 197 0.0 0.9 0.00 0.00 0.00 69 1009.4
20260503042946 51 197 0.0 0.9 0.00 0.00 0.00 71 1009.3
20260503042439 51 197 0.0 0.0 0.00 0.00 0.00 72 1009.4
20260503041933 51 197 0.0 0.0 0.00 0.00 0.00 72 1009.4
20260503041650 51 197 0.0 0.0 0.00 0.00 0.00 72 1009.4
20260503040922 51 197 0.0 0.0 0.00 0.00 0.00 72 1009.4
20260503040415 51 197 0.0 0.0 0.00 0.00 0.00 72 1009.4
20260503035912 51 197 0.0 0.0 0.00 0.00 0.00 72 1009.4
20260503035404 51 197 0.0 0.0 0.00 0.00 0.00 73 1009.4
20260503035337 51 197 0.0 0.0 0.00 0.00 0.00 73 1009.4
20260503034352 51 197 0.0 0.0 0.00 0.00 0.00 73 1009.3
20260503033847 51 197 0.0 0.0 0.00 0.00 0.00 73 1009.4
20260503033607 51 197 0.0 0.0 0.00 0.00 0.00 74 1009.4
20260503032835 51 197 0.0 0.0 0.00 0.00 0.00 73 1009.4
20260503032812 51 197 0.0 0.0 0.00 0.00 0.00 73 1009.4
20260503031832 51 197 0.0 0.0 0.00 0.00 0.00 73 1009.4
20260503031330 51 197 0.0 0.0 0.00 0.00 0.00 74 1009.4
20260503030828 51 197 0.0 0.0 0.00 0.00 0.00 73 1009.3
20260503030331 52 197 0.0 0.0 0.00 0.00 0.00 73 1009.3
20260503025825 52 197 0.0 0.0 0.00 0.00 0.00 72 1009.3
20260503025544 52 197 0.0 0.0 0.00 0.00 0.00 72 1009.3
20260503024823 52 197 0.0 0.0 0.00 0.00 0.00 73 1009.3
20260503024323 52 197 0.0 0.0 0.00 0.00 0.00 72 1009.3
20260503023819 52 197 0.0 0.0 0.00 0.00 0.00 72 1009.3
20260503023320 52 197 0.0 0.0 0.00 0.00 0.00 72 1009.3
20260503022821 52 197 0.0 0.0 0.00 0.00 0.00 73 1009.3
20260503022319 52 197 0.0 0.0 0.00 0.00 0.00 73 1009.2
20260503022042 52 197 0.0 0.0 0.00 0.00 0.00 73 1009.2
20260503021320 52 197 0.0 0.0 0.00 0.00 0.00 72 1009.2
20260503020815 52 197 0.0 0.0 0.00 0.00 0.00 71 1009.2
20260503020801 52 197 0.0 0.0 0.00 0.00 0.00 72 1009.1
20260503020039 52 197 0.0 0.0 0.00 0.00 0.00 72 1009.2
20260503015532 52 197 0.0 0.0 0.00 0.00 0.00 71 1009.1
20260503014815 52 197 0.0 0.0 0.00 0.00 0.00 71 1009.1
20260503014314 52 197 0.0 0.0 0.00 0.00 0.00 71 1009.1
20260503013815 52 197 0.0 0.0 0.00 0.00 0.00 70 1009.0
20260503013313 52 197 0.0 0.0 0.00 0.00 0.00 70 1009.0
20260503012816 52 197 0.0 0.0 0.00 0.00 0.00 69 1008.9
20260503012314 53 197 0.0 0.0 0.00 0.00 0.00 68 1008.9
20260503011814 53 197 0.0 0.0 0.00 0.00 0.00 68 1008.9
20260503011315 53 197 0.0 0.0 0.00 0.00 0.00 68 1008.8
20260503011044 53 197 0.0 0.0 0.00 0.00 0.00 67 1008.8